Погода Преображение

Погода Преображение : погода сейчас, прогноз погоды и архив. Всё, что Вы хотите узнать о погоде Преображение!

Хотите узнать прогноз погоды Преображение? Тогда Вам сюда: Погода Преображение

Поиск расширенной информации на нашем сайте:

Другие новости

Новости СМИ2

Главная страница сайта

Новости сайта

03.07.2017

Напоминаем, что на нашем специализированном сайте Метеоцентр.Азия вы можете получить высокодетализированные автоматические прогнозы погоды по пунктам России, СНГ и мира в авиационном формате (включающие направление и скорость ветра, видимость, явления погоды, количество и форму облачности, нижнюю и верхнюю границу облачности).

Рекомендуем: Правильная регулировка пластикового окна.

Погода Преображение - сегодня

Время (UTC), дата Ветер
(°,м/с) 
Видим.   Явления Облачность Т
(°С)
Тd
(°С)
f(%) Тe
(°С)
Pmin
(гПа)
dP
(гПа)
Po
(мм)
O2
(г/м3)
Тmin Tmax R s Состояние
почвы
03 23.07.17 120 (ЮВ) 20000 м    4/0 верхняя 
[Ci fib]
+21.3 +15.2 68 +30  1007.3  752  278           
06 23.07.17 260 (З) 20000 м    8/0 верхняя 
[Cc]
+20.1 +15.6 75 +30  1005.8  -1.5  751  278           
09 23.07.17 200 (Ю) 20000 м    5/0 верхняя 
[Cc]
+18 +15.1 83 +28  1004.9  -1  750  280    +21.5       
12 23.07.17 010 (С) 20000 м    9/0 верхняя 
[Ci fib]
+16.9 +15 89 +27  1005  0.1  750  281           
15 23.07.17 010 (С) 20000 м    ясно 
+16 +14.3 90 +24  1003.5  -1.5  749  282           
18 23.07.17 350 (С) 20000 м    9/0 верхняя 
[Cs]
+16 +13.5 85 +23  1002.3  -1.2  748  282           
21 23.07.17 210 (ЮЗ) 20000 м    10/0 средняя, верхняя 
[Ac trans|Cc]
+17.8 +14.7 82 +27  1001.7  -0.6  748  280  +15        влажная 
00 24.07.17 170 (Ю) 20000 м    8/0 средняя, верхняя 
[Ac trans|Cc]
+21 +16.7 76 +33  1001.3  -0.3  747  276           
03 24.07.17 150 (ЮВ) 20000 м    8/0 средняя, верхняя 
[Ac trans|Cc]
+22.1 +17.9 77 +36  1000.4  -0.9  747  274           
06 24.07.17 190 (Ю) 20000 м    8/3 600 м верхняя 
[Cu hum|Cc]
+22.5 +18.3 77 +38  998.8  -1.6  745  273           
09 24.07.17 100 (В) 20000 м    3/1 600 м верхняя 
[Cu hum|Ci fib]
+21.4 +18.6 84 +37  998.6  -0.2  745  274    +23.1       
12 24.07.17 090 (В) 20000 м    8/0 средняя 
[Ac trans]
+19.3 +17.7 90 +35  1000.9  2.3  747  277           
15 24.07.17 тихо ()   20000 м    ясно 
+18.9 +15.7 82 +29  1000.7  -0.2  747  278           
18 24.07.17 070 (В) 20000 м    ясно 
+17.6 +15.2 86 +28  1001.5  0.7  747  280           
21 24.07.17 320 (СЗ) 20000 м    4/0 верхняя 
[Ci fib]
+21 +13.5 62 +27  1002.7  1.3  748  277  +16.3        влажная 
00 25.07.17 030 (СВ) 20000 м    4/0 верхняя 
[Ci sp]
+24.7 +12.1 45 +29  1003.4  0.8  749  274           
03 25.07.17 260 (З) 20000 м    ясно 
+26.2 +6.7 29 +26  1003  -0.5  749  274           
06 25.07.17 240 (ЮЗ) 20000 м    1/1 600 м 
[Cu hum]
+25 +12.9 47 +30  1002.6  -0.4  748  274           
09 25.07.17 360 (С) 20000 м    3/1 600 м средняя 
[Cu hum|Ac lent]
+25.6 +8.7 34 +26  1004.2  1.7  750  275    +27.9       
12 25.07.17 030 (СВ) 20000 м    ясно 
+19.7 +10.7 56 +23  1007.3  2.9  752  281           
15 25.07.17 020 (С) 20000 м    ясно 
+17.2 +10.6 65 +19  1008.7  1.4  753  283           
18 25.07.17 020 (С) 20000 м    ясно 
+16.3 +10.5 69 +18  1008.5  -0.2  753  284           
21 25.07.17 020 (С) 20000 м    9/0 верхняя 
[Ci]
+16.4 +11 70 +18  1009.7  1.1  753  284  +14.1        влажная 
00 26.07.17 тихо ()   20000 м    4/0 верхняя 
[Ci fib]
+23.1 +14.9 60 +31  1010.1  0.6  754  277           
03 26.07.17 200 (Ю) 20000 м    9/1 600 м верхняя 
[Cu med, cong|Ci]
+23.8 +12.7 50 +29  1009.8  -0.3  754  277           
Время (UTC), дата Ветер
(°,м/с) 
Видим.   Явления Облачность Т
(°С)
Тd
(°С)
f(%) Тe
(°С)
Pmin
(гПа)
dP
(гПа)
Po
(мм)
O2
(г/м3)
Тmin Tmax R s Состояние
почвы

Для получения пояснительной информации подведите курсор к названию столбца.

ПОГОДА Преображение - архив

Всё, что Вы хотите узнать о погоде Преображение - удобно и подробно!

Выберите нужную дату (начиная с 1 января 2015* года) и нажмите кнопку "Найти".
Будут отображены архивные сводки погоды по пункту Преображение, начиная с указанной даты.


Отображать данные в формате CSV (для использования в таблицах Excel)


Внимание! Наш архив погоды предназначен исключительно для личного некоммерческого использования в познавательных целях. Если Вам необходимы официальные справки о состоянии погоды (для производственных, юридических, коммерческих и т.п. целей), обращайтесь в органы Росгидромета.

*Примечание: данная дата относится к архиву по метеостанциям СССР (Россия, СНГ, Балтия).
Архив по метеостанциям Зарубежной Европы и Азии (кроме Китая) хранится 10 дней, по другим регионам земного шара (Китай, Африка, Америка, Австралия, Океания) - 1 день.

Преображение - район местоположения метеостанции


Название, широта, долгота, высота метеостанции:
Преображение 42.9°ш. 133.9°д. 43 м над ур. моря [Российская Федерация]

Дополнительная информация

В oтличие oт бoльшинства пoгoдных сайтoв мы публикуем пoдрoбную метеoинфoрмацию в детальнoм прoфессиoнальнoм фoрмате.

Характеристики температуры и влажнoсти вoздуха измеряются на высoте 2 м в тени вдали oт зданий и деревьев.
Скoрoсть ветра измеряется на высoте 10 м (на урoвне рoста челoвека скoрoсть ветра ниже в 1.5-2 раза). Если метеoстанция нахoдится в гoрoде или в лесу, тo скoрoсть ветра занижена на 2-4 м/с пo сравнению с oткрытым местoм. Скoрoсть ветра над акватoриями крупных рек и oзёр, а также на вершинах хoлмoв на 2-5 м/с выше, чем в oбычных услoвиях.
Атмoсфернoе давление в разных тoчках местнoсти мoжет значительнo oтличаться oт давления на метеoстанции, в зависимoсти oт услoвий рельефа (при пoдъёме на 10 м давление пoнижается примернo на 1 мм рт.ст.).